When you browse on this site, cookies collect data to enhance your experience and personalize the content and advertising you see.
Visit our Privacy Policy to learn more. By continuing to use the site, you agree to this use of cookies and data.
  • en Suisse
  • Liste des pays
  • À 7 jours
  • Température de l'eau
  • Carte météo
  • Widgets météo
  • user-avatar
    Se connecter

    Météo par heure à Griboedovo

    Ce jour, 25 Août, Dimanche

    Heure Température Précipitation Vent Pression Humidité
    00:00 +16°C° 0 mm 3 m/s 752 mmHg 86%
    01:00 +14°C° 0 mm 3 m/s 752 mmHg 89%
    02:00 +14°C° 0 mm 3 m/s 753 mmHg 91%
    03:00 +14°C° 0 mm 3 m/s 753 mmHg 93%
    04:00 +13°C° 0 mm 3 m/s 753 mmHg 94%
    05:00 +13°C° 0 mm 3 m/s 753 mmHg 94%
    06:00 +13°C° 0 mm 3 m/s 753 mmHg 95%
    07:00 +14°C° 0 mm 3 m/s 753 mmHg 88%
    08:00 +16°C° 0 mm 3 m/s 754 mmHg 82%
    09:00 +18°C° 0 mm 3 m/s 754 mmHg 75%
    10:00 +19°C° 0 mm 3 m/s 754 mmHg 71%
    11:00 +20°C° 0 mm 4 m/s 754 mmHg 66%
    12:00 +21°C° 0 mm 4 m/s 754 mmHg 61%
    13:00 +21°C° 0 mm 4 m/s 754 mmHg 60%
    14:00 +21°C° 0 mm 4 m/s 754 mmHg 59%
    15:00 +22°C° 0 mm 3 m/s 755 mmHg 58%
    16:00 +21°C° 0 mm 3 m/s 755 mmHg 61%
    17:00 +21°C° 0 mm 3 m/s 754 mmHg 65%
    18:00 +20°C° 0 mm 2 m/s 754 mmHg 69%
    19:00 +19°C° 0 mm 2 m/s 755 mmHg 73%
    20:00 +17°C° 0 mm 2 m/s 755 mmHg 76%
    21:00 +16°C° 0 mm 1 m/s 756 mmHg 80%
    22:00 +15°C° 0 mm 2 m/s 756 mmHg 83%
    23:00 +14°C° 0 mm 2 m/s 756 mmHg 86%

    Demain, 26 Août, Lundi

    Heure Température Précipitation Vent Pression Humidité
    00:00 +14°C° 0 mm 2 m/s 756 mmHg 89%
    01:00 +13°C° 0 mm 2 m/s 756 mmHg 89%
    02:00 +13°C° 0 mm 1 m/s 756 mmHg 89%
    03:00 +13°C° 0 mm 1 m/s 757 mmHg 89%
    04:00 +12°C° 0 mm 1 m/s 757 mmHg 88%
    05:00 +12°C° 0 mm 1 m/s 757 mmHg 88%
    06:00 +12°C° 0 mm 1 m/s 756 mmHg 88%
    07:00 +14°C° 0 mm 1 m/s 757 mmHg 82%
    08:00 +16°C° 0 mm 1 m/s 757 mmHg 76%
    09:00 +18°C° 0 mm 1 m/s 757 mmHg 70%
    10:00 +20°C° 0 mm 1 m/s 757 mmHg 66%
    11:00 +21°C° 0 mm 1 m/s 756 mmHg 63%
    12:00 +22°C° 0 mm 1 m/s 756 mmHg 59%
    13:00 +22°C° 0 mm 1 m/s 756 mmHg 58%
    14:00 +23°C° 0 mm 2 m/s 755 mmHg 57%
    15:00 +23°C° 0 mm 2 m/s 755 mmHg 56%
    16:00 +23°C° 0 mm 2 m/s 755 mmHg 59%
    17:00 +21°C° 0 mm 2 m/s 754 mmHg 63%
    18:00 +21°C° 0 mm 2 m/s 754 mmHg 67%
    19:00 +19°C° 0 mm 2 m/s 754 mmHg 70%
    20:00 +18°C° 0 mm 2 m/s 753 mmHg 74%
    21:00 +16°C° 0 mm 2 m/s 753 mmHg 78%
    22:00 +16°C° 0 mm 2 m/s 753 mmHg 79%
    23:00 +14°C° 0 mm 3 m/s 753 mmHg 80%

    Après-demain, 27 Août, Mardi

    Heure Température Précipitation Vent Pression Humidité
    00:00 +14°C° 0 mm 3 m/s 753 mmHg 81%
    01:00 +14°C° 0 mm 3 m/s 752 mmHg 83%
    02:00 +13°C° 0 mm 3 m/s 752 mmHg 84%
    03:00 +13°C° 0 mm 3 m/s 752 mmHg 85%
    04:00 +13°C° 0 mm 3 m/s 751 mmHg 86%
    05:00 +13°C° 0 mm 3 m/s 751 mmHg 86%
    06:00 +13°C° 0 mm 4 m/s 750 mmHg 87%
    07:00 +15°C° 0 mm 4 m/s 750 mmHg 85%
    08:00 +16°C° 0 mm 5 m/s 750 mmHg 82%
    09:00 +17°C° 0 mm 5 m/s 749 mmHg 80%
    10:00 +19°C° 0.5 mm 5 m/s 749 mmHg 78%
    11:00 +20°C° 0.5 mm 5 m/s 749 mmHg 76%
    12:00 +21°C° 0.5 mm 5 m/s 748 mmHg 74%
    13:00 +21°C° 0.3 mm 5 m/s 748 mmHg 74%
    14:00 +21°C° 0.3 mm 6 m/s 748 mmHg 73%
    15:00 +21°C° 0.3 mm 6 m/s 748 mmHg 73%
    16:00 +20°C° 0 mm 5 m/s 748 mmHg 72%
    17:00 +20°C° 0 mm 5 m/s 748 mmHg 71%
    18:00 +19°C° 0 mm 5 m/s 748 mmHg 71%
    19:00 +17°C° 0 mm 5 m/s 748 mmHg 73%
    20:00 +17°C° 0 mm 4 m/s 748 mmHg 75%
    21:00 +14°C° 0 mm 4 m/s 749 mmHg 77%
    22:00 +14°C° 0 mm 4 m/s 749 mmHg 78%
    23:00 +13°C° 0 mm 4 m/s 749 mmHg 79%

    28 Août, Mercredi

    Heure Température Précipitation Vent Pression Humidité
    00:00 +12°C° 0 mm 4 m/s 750 mmHg 81%
    01:00 +11°C° 0 mm 4 m/s 750 mmHg 82%
    02:00 +10°C° 0 mm 4 m/s 750 mmHg 83%
    03:00 +8°C° 0 mm 4 m/s 750 mmHg 84%
    04:00 +7°C° 0 mm 4 m/s 751 mmHg 85%
    05:00 +8°C° 0 mm 3 m/s 751 mmHg 86%
    06:00 +7°C° 0 mm 3 m/s 752 mmHg 86%
    07:00 +8°C° 0 mm 3 m/s 752 mmHg 81%
    08:00 +8°C° 0 mm 4 m/s 752 mmHg 76%
    09:00 +9°C° 0 mm 5 m/s 752 mmHg 70%
    10:00 +10°C° 0 mm 5 m/s 752 mmHg 66%
    11:00 +12°C° 0 mm 5 m/s 752 mmHg 61%
    12:00 +14°C° 0 mm 5 m/s 752 mmHg 57%
    13:00 +14°C° 0 mm 6 m/s 752 mmHg 54%
    14:00 +14°C° 0 mm 6 m/s 752 mmHg 51%
    15:00 +15°C° 0 mm 6 m/s 752 mmHg 49%
    16:00 +14°C° 0 mm 5 m/s 752 mmHg 53%
    17:00 +13°C° 0 mm 5 m/s 752 mmHg 58%
    18:00 +13°C° 0 mm 4 m/s 752 mmHg 62%
    19:00 +11°C° 0 mm 4 m/s 752 mmHg 66%
    20:00 +10°C° 0 mm 3 m/s 753 mmHg 70%
    21:00 +8°C° 0 mm 3 m/s 753 mmHg 74%
    22:00 +7°C° 0 mm 3 m/s 753 mmHg 77%
    23:00 +7°C° 0 mm 3 m/s 754 mmHg 79%

    29 Août, Jeudi

    Heure Température Précipitation Vent Pression Humidité
    00:00 +6°C° 0 mm 2 m/s 754 mmHg 82%
    01:00 +6°C° 0 mm 2 m/s 754 mmHg 83%
    02:00 +6°C° 0 mm 2 m/s 754 mmHg 85%
    03:00 +5°C° 0 mm 2 m/s 754 mmHg 86%
    04:00 +4°C° 0 mm 3 m/s 754 mmHg 88%
    05:00 +4°C° 0 mm 3 m/s 755 mmHg 89%
    06:00 +4°C° 0 mm 3 m/s 755 mmHg 90%
    07:00 +5°C° 0 mm 4 m/s 755 mmHg 83%
    08:00 +7°C° 0 mm 4 m/s 755 mmHg 76%
    09:00 +9°C° 0 mm 5 m/s 755 mmHg 69%
    10:00 +10°C° 0 mm 5 m/s 755 mmHg 66%
    11:00 +12°C° 0 mm 5 m/s 755 mmHg 64%
    12:00 +13°C° 0 mm 4 m/s 755 mmHg 61%
    13:00 +14°C° 0 mm 4 m/s 754 mmHg 59%
    14:00 +14°C° 0 mm 4 m/s 754 mmHg 56%
    15:00 +15°C° 0 mm 4 m/s 754 mmHg 54%
    16:00 +14°C° 0 mm 4 m/s 754 mmHg 58%
    17:00 +14°C° 0 mm 3 m/s 754 mmHg 61%
    18:00 +14°C° 0 mm 3 m/s 754 mmHg 65%
    19:00 +12°C° 0 mm 3 m/s 754 mmHg 68%
    20:00 +10°C° 0 mm 2 m/s 754 mmHg 70%
    21:00 +9°C° 0 mm 2 m/s 754 mmHg 73%
    22:00 +8°C° 0 mm 2 m/s 755 mmHg 76%
    23:00 +8°C° 0 mm 2 m/s 755 mmHg 79%

    30 Août, Vendredi

    Heure Température Précipitation Vent Pression Humidité
    00:00 +7°C° 0 mm 2 m/s 755 mmHg 82%
    01:00 +7°C° 0 mm 2 m/s 755 mmHg 83%
    02:00 +6°C° 0 mm 2 m/s 755 mmHg 84%
    03:00 +7°C° 0 mm 1 m/s 755 mmHg 85%
    04:00 +6°C° 0 mm 2 m/s 755 mmHg 86%
    05:00 +5°C° 0 mm 2 m/s 755 mmHg 86%
    06:00 +5°C° 0 mm 2 m/s 755 mmHg 87%
    07:00 +7°C° 0 mm 2 m/s 755 mmHg 80%
    08:00 +9°C° 0 mm 2 m/s 754 mmHg 74%
    09:00 +11°C° 0 mm 3 m/s 754 mmHg 68%
    10:00 +12°C° 0 mm 3 m/s 754 mmHg 61%
    11:00 +14°C° 0 mm 3 m/s 754 mmHg 55%
    12:00 +16°C° 0 mm 3 m/s 754 mmHg 49%
    13:00 +17°C° 0 mm 3 m/s 753 mmHg 50%
    14:00 +18°C° 0 mm 3 m/s 753 mmHg 52%
    15:00 +18°C° 0 mm 4 m/s 752 mmHg 53%
    16:00 +18°C° 0 mm 3 m/s 752 mmHg 60%
    17:00 +18°C° 0 mm 3 m/s 752 mmHg 67%
    18:00 +18°C° 0 mm 3 m/s 751 mmHg 74%
    19:00 +17°C° 0.2 mm 3 m/s 751 mmHg 79%
    20:00 +16°C° 0.2 mm 3 m/s 751 mmHg 85%
    21:00 +14°C° 0.2 mm 3 m/s 751 mmHg 90%
    22:00 +15°C° 0.2 mm 2 m/s 751 mmHg 92%
    23:00 +14°C° 0.2 mm 2 m/s 751 mmHg 94%
    Voir plus